Location: Davidschlag
(48.4333°N, 14.2833°E)
Time: 18:18:34
(UTC+00:00)

STARLINK-77 - Pass Details

Date: 27 February 2020
Orbit: 528 x 531 km, 53.0° (Epoch: 28 March)

Event Time Altitude Azimuth Distance (km) Brightness Sun altitude
Rises 18:53:41 0° 289° (WNW) 2,668 8.6 -22.4°
Reaches altitude 10° 18:55:58 10° 295° (WNW) 1,778 7.3 -22.7°
Enters shadow 18:59:41 47° 1° (N) 705 4.1 -23.3°
